| time (UTC) | temp C | wind direction | speed KPH | gust KPH | rain 1hr cm | rain 24hr cm | rain mn cm | humidity % | barometer mb |
| 20260505070043 | 11 | 114 | 3.2 | 19.3 | 0.00 | 0.00 | 0.00 | 68 | 1007.3 |
| 20260505064536 | 11 | 120 | 3.2 | 8.0 | 0.00 | 0.00 | 0.00 | 68 | 1007.4 |
| 20260505063040 | 11 | 144 | 1.6 | 6.4 | 0.00 | 0.00 | 0.00 | 67 | 1007.5 |
| 20260505061535 | 11 | 122 | 3.2 | 9.7 | 0.00 | 0.00 | 0.00 | 67 | 1007.6 |
| 20260505060053 | 11 | 98 | 1.6 | 9.7 | 0.00 | 0.00 | 0.00 | 67 | 1007.7 |
| 20260505054537 | 11 | 0 | 1.6 | 6.4 | 0.00 | 0.00 | 0.00 | 67 | 1007.5 |
| 20260505053038 | 11 | 124 | 1.6 | 8.0 | 0.00 | 0.00 | 0.00 | 66 | 1007.6 |
| 20260505051535 | 11 | 157 | 1.6 | 8.0 | 0.00 | 0.00 | 0.00 | 66 | 1007.8 |
| 20260505041549 | 12 | 136 | 1.6 | 12.9 | 0.00 | 0.00 | 0.00 | 62 | 1007.7 |
| 20260505040041 | 12 | 0 | 1.6 | 8.0 | 0.00 | 0.00 | 0.00 | 61 | 1007.7 |
| 20260505040027 | 13 | 139 | 1.6 | 1.6 | 0.00 | 0.00 | 0.00 | 61 | 1007.7 |
| 20260505034537 | 12 | 0 | 1.6 | 6.4 | 0.00 | 0.00 | 0.00 | 60 | 1007.4 |
| 20260505033037 | 12 | 0 | 0.0 | 4.8 | 0.00 | 0.00 | 0.00 | 59 | 1007.4 |
| 20260505031536 | 12 | 116 | 1.6 | 4.8 | 0.00 | 0.00 | 0.00 | 61 | 1007.4 |
| 20260505030044 | 11 | 0 | 0.0 | 3.2 | 0.00 | 0.00 | 0.00 | 65 | 1007.3 |
| 20260505024534 | 11 | 0 | 0.0 | 0.0 | 0.00 | 0.00 | 0.00 | 66 | 1007.2 |
| 20260505023109 | 11 | 0 | 0.0 | 0.0 | 0.00 | 0.00 | 0.00 | 68 | 1007.2 |
| 20260505021537 | 10 | 0 | 0.0 | 0.0 | 0.00 | 0.00 | 0.00 | 69 | 1007.2 |
| 20260505020040 | 11 | 0 | 0.0 | 0.0 | 0.00 | 0.00 | 0.00 | 69 | 1007.2 |
| 20260505014559 | 11 | 0 | 0.0 | 0.0 | 0.00 | 0.00 | 0.00 | 69 | 1007.1 |
| 20260505013046 | 11 | 0 | 0.0 | 0.0 | 0.00 | 0.00 | 0.00 | 67 | 1007.1 |
| 20260505011540 | 12 | 0 | 0.0 | 0.0 | 0.00 | 0.00 | 0.00 | 64 | 1007.1 |
| 20260505010051 | 13 | 0 | 0.0 | 0.0 | 0.00 | 0.00 | 0.00 | 61 | 1007.0 |
| 20260505004546 | 13 | 0 | 0.0 | 0.0 | 0.00 | 0.00 | 0.00 | 58 | 1006.8 |
| 20260505003052 | 14 | 0 | 0.0 | 0.0 | 0.00 | 0.00 | 0.00 | 55 | 1006.6 |
| 20260505001537 | 15 | 0 | 0.0 | 0.0 | 0.00 | 0.00 | 0.00 | 52 | 1006.3 |
| 20260505000037 | 15 | 0 | 0.0 | 1.6 | 0.00 | 0.00 | 0.00 | 51 | 1006.2 |
| 20260504234533 | 16 | 0 | 0.0 | 1.6 | 0.00 | 0.00 | 0.00 | 47 | 1005.9 |
| 20260504233037 | 17 | 0 | 0.0 | 4.8 | 0.00 | 0.00 | 0.00 | 45 | 1005.8 |
| 20260504231537 | 18 | 0 | 0.0 | 4.8 | 0.00 | 0.00 | 0.00 | 40 | 1005.6 |
| 20260504230035 | 18 | 47 | 0.0 | 14.5 | 0.00 | 0.00 | 0.00 | 35 | 1005.3 |
| 20260504224534 | 18 | 0 | 3.2 | 11.3 | 0.00 | 0.00 | 0.00 | 35 | 1005.2 |
| 20260504223046 | 18 | 22 | 3.2 | 11.3 | 0.00 | 0.00 | 0.00 | 35 | 1005.3 |
| 20260504221537 | 18 | 12 | 0.0 | 9.7 | 0.00 | 0.00 | 0.00 | 39 | 1005.1 |
| 20260504220036 | 19 | 329 | 3.2 | 19.3 | 0.00 | 0.00 | 0.00 | 35 | 1005.0 |
| 20260504214537 | 19 | 205 | 3.2 | 17.7 | 0.00 | 0.00 | 0.00 | 35 | 1004.9 |
| 20260504213036 | 19 | 292 | 3.2 | 17.7 | 0.00 | 0.00 | 0.00 | 36 | 1004.9 |
| 20260504211551 | 19 | 128 | 3.2 | 14.5 | 0.00 | 0.00 | 0.00 | 36 | 1005.0 |
| 20260504210043 | 19 | 348 | 3.2 | 20.9 | 0.00 | 0.00 | 0.00 | 34 | 1005.3 |
| 20260504204535 | 19 | 184 | 3.2 | 17.7 | 0.00 | 0.00 | 0.00 | 36 | 1005.3 |
| 20260504203037 | 19 | 173 | 4.8 | 24.1 | 0.00 | 0.00 | 0.00 | 37 | 1005.2 |
| 20260504201534 | 19 | 240 | 3.2 | 19.3 | 0.00 | 0.00 | 0.00 | 39 | 1005.3 |
| 20260504200036 | 18 | 240 | 4.8 | 14.5 | 0.00 | 0.00 | 0.00 | 37 | 1005.5 |
| 20260504194542 | 19 | 301 | 4.8 | 20.9 | 0.00 | 0.00 | 0.00 | 38 | 1005.6 |
| 20260504193038 | 19 | 116 | 4.8 | 17.7 | 0.00 | 0.00 | 0.00 | 37 | 1005.5 |
| 20260504191537 | 19 | 357 | 3.2 | 14.5 | 0.00 | 0.00 | 0.00 | 38 | 1005.7 |
| 20260504190038 | 18 | 0 | 4.8 | 22.5 | 0.00 | 0.00 | 0.00 | 39 | 1005.8 |
| 20260504184545 | 17 | 132 | 6.4 | 17.7 | 0.00 | 0.00 | 0.00 | 41 | 1005.9 |
| 20260504183036 | 17 | 0 | 1.6 | 19.3 | 0.00 | 0.00 | 0.00 | 41 | 1006.0 |
| 20260504181536 | 17 | 0 | 3.2 | 12.9 | 0.00 | 0.00 | 0.00 | 40 | 1005.9 |
| 20260504180035 | 17 | 157 | 3.2 | 11.3 | 0.00 | 0.00 | 0.00 | 39 | 1005.9 |
| 20260504174540 | 17 | 163 | 3.2 | 27.4 | 0.00 | 0.00 | 0.00 | 43 | 1005.9 |
| 20260504173037 | 16 | 132 | 1.6 | 11.3 | 0.00 | 0.00 | 0.00 | 47 | 1006.0 |
| 20260504171537 | 15 | 225 | 3.2 | 16.1 | 0.00 | 0.00 | 0.00 | 47 | 1006.3 |
| 20260504081539 | 5 | 151 | 0.0 | 3.2 | 0.00 | 0.00 | 0.00 | 80 | 1008.1 |